OneWeb SL0110

operational
NORAD ID: 47268 Int'l Des: 2020-100 Owner: ONEWEB Country: UK Constellation: oneweb
LEOCIRCULARPOLARONEWEB_TYPE

Über OneWeb SL0110

Beschreibung wird geladen...

Live-Position

3D-Globus wird geladen...

Nächste Überflüge

Höhenverlauf

Altitude vs Time

uPlot chart will show altitude changes over time

Zweizeiliger Elementsatz

1 47268U 20100L 26035.93956816 .00000320 00000-0 85522-3 0 9993
2 47268 87.8954 16.9049 0001696 88.6526 271.4797 13.12441393247209
Epoch: 4. Feb. 2026 • Age: 14 hours

Aktueller Status

Höhe 1222.4 km
Geschwindigkeit 7.24 km/s
Subsatellitenpunkt -21.68°S, 123.75°W
Startdatum 18. Dez. 2020
Alter 5.1 years
Typ internet

Technische Details

Klassifizierung Payload
Masse 148.00 kg
Trockenmasse 140.00 kg
Gesamtmasse 148.00 kg
Länge 1.30 m
Durchmesser 1.00 m
Spannweite 5.00 m
Form Trapezoid+2 pan
Hersteller ONEWUS
Bus-Typ ARROW
Phasenstatus In Orbit
Besitzer/Staat ONEWEB/UK

Große Konstellationen

Loading constellations...